Home   Weather   Edmonton   Past weeks
Flag for Canada

Past Weather in Edmonton, Alberta, Canada — October 2017

Now
-2 °F

Frigid.


Feels Like: -14 °F
Forecast: 27 / -5 °F
Wind: 6 mph from Southwest

Location: Edmonton Municipal

Current Time: Feb 19, 2020 at 7:10:30 am

Latest Report: Feb 19, 2020 at 6:00 am


Visibility: N/A

Pressure: 30.42 "Hg (27.72 "Hg at 692m altitude)

Humidity: 79%

Dew Point: -7 °F

Location of EdmontonLocation

October 2017 Weather in Edmonton — Graph

°F

High & Low Weather Summary for October 2017

 TemperatureHumidityPressure
High70 °F (Oct 5, 4:00 pm)100% (Oct 31, 9:00 am)30.52 "Hg (Oct 31, 9:00 am)
Low22 °F (Oct 13, 5:00 am)26% (Oct 4, 3:00 pm)29.07 "Hg (Oct 17, 3:00 pm)
Average41 °F65%29.91 "Hg
* Reported Oct 1 12:00 am — Oct 31 11:00 pm, Edmonton. Weather by CustomWeather, © 2020

Note: Actual official high and low records may vary slightly from our data, if they occured in-between our weather recording intervals... More about our weather records

Edmonton Weather History for October 1, 2017

Scroll right to see more
 ConditionsComfort  
Time TempWeatherWind HumidityBarometerVisibility
12:00 am
Sun, Oct 1
52 °FCool.12 mph49%29.72 "HgN/A
1:00 am51 °FCool.13 mph47%29.73 "HgN/A
2:00 am50 °FCool.13 mph48%29.74 "HgN/A
3:00 am49 °FCool.13 mph54%29.75 "HgN/A
4:00 am49 °FCool.13 mph57%29.76 "HgN/A
5:00 am48 °FCool.14 mph60%29.78 "HgN/A
6:00 am47 °FCool.12 mph63%29.79 "HgN/A
7:00 am46 °FCool.10 mph65%29.81 "HgN/A
8:00 am46 °FCool.12 mph67%29.83 "HgN/A
9:00 am47 °FCool.13 mph65%29.85 "HgN/A
10:00 am47 °FCool.13 mph65%29.87 "HgN/A
11:00 am46 °FCool.16 mph62%29.88 "HgN/A
12:00 pm47 °FCool.17 mph59%29.90 "HgN/A
1:00 pm46 °FCool.17 mph57%29.91 "HgN/A
2:00 pm47 °FCool.17 mph56%29.93 "HgN/A
3:00 pm46 °FCool.18 mph58%29.95 "HgN/A
4:00 pm46 °FCool.17 mph58%29.97 "HgN/A
5:00 pm44 °FQuite cool.20 mph58%29.99 "HgN/A
6:00 pm42 °FQuite cool.23 mph71%30.02 "HgN/A
7:00 pm40 °FQuite cool.17 mph83%30.05 "HgN/A
8:00 pm36 °FChilly.15 mph98%30.08 "HgN/A
9:00 pm38 °FChilly.15 mph92%30.10 "HgN/A
10:00 pm35 °FChilly.16 mph99%30.12 "HgN/A
11:00 pm35 °FChilly.15 mph95%30.13 "HgN/A
Weather by CustomWeather, © 2020

See weather overview

Advertising